TimeCDT,TemperatureF,Dew PointF,Humidity,Sea Level PressureIn,VisibilityMPH,Wind Direction,Wind SpeedMPH,Gust SpeedMPH,PrecipitationIn,Events,Conditions,WindDirDegrees,DateUTC
12:01 AM,50.0,46.4,87,29.88,10.0,NW,21.9,29.9,N/A,,Overcast,320,2013-09-28 05:01:00
12:33 AM,50.0,44.6,82,29.88,10.0,NW,19.6,27.6,N/A,,Overcast,320,2013-09-28 05:33:00
12:53 AM,50.0,46.0,86,29.88,10.0,NNW,18.4,-,N/A,,Overcast,330,2013-09-28 05:53:00
1:53 AM,50.0,45.0,83,29.92,10.0,NW,15.0,21.9,N/A,,Overcast,320,2013-09-28 06:53:00
2:53 AM,50.0,44.1,80,29.91,10.0,NNW,13.8,-,N/A,,Overcast,330,2013-09-28 07:53:00
3:53 AM,48.9,44.1,83,29.93,10.0,WNW,10.4,-,N/A,,Mostly Cloudy,300,2013-09-28 08:53:00
4:53 AM,46.9,42.1,83,29.95,10.0,NW,12.7,-,N/A,,Clear,310,2013-09-28 09:53:00
5:53 AM,45.0,42.1,90,29.98,10.0,WNW,6.9,-,N/A,,Clear,290,2013-09-28 10:53:00
6:53 AM,45.0,41.0,86,30.01,10.0,West,10.4,-,N/A,,Clear,280,2013-09-28 11:53:00
7:53 AM,44.1,39.9,85,30.04,10.0,WNW,9.2,-,N/A,,Clear,290,2013-09-28 12:53:00
8:53 AM,46.9,39.9,77,30.06,10.0,West,11.5,-,N/A,,Clear,280,2013-09-28 13:53:00
9:53 AM,51.1,39.9,66,30.08,10.0,WNW,17.3,23.0,N/A,,Clear,300,2013-09-28 14:53:00
10:53 AM,55.0,39.9,57,30.09,10.0,WNW,15.0,23.0,N/A,,Clear,300,2013-09-28 15:53:00
11:53 AM,60.1,37.9,44,30.09,10.0,NW,17.3,24.2,N/A,,Clear,320,2013-09-28 16:53:00
12:53 PM,62.1,37.0,39,30.09,10.0,WNW,13.8,21.9,N/A,,Clear,290,2013-09-28 17:53:00
1:53 PM,64.9,36.0,34,30.07,10.0,WNW,11.5,25.3,N/A,,Clear,300,2013-09-28 18:53:00
2:53 PM,66.9,35.1,31,30.06,10.0,NW,19.6,26.5,N/A,,Clear,320,2013-09-28 19:53:00
3:53 PM,68.0,34.0,28,30.05,10.0,WNW,15.0,23.0,N/A,,Clear,300,2013-09-28 20:53:00
4:53 PM,69.1,35.1,29,30.04,10.0,WNW,10.4,17.3,N/A,,Clear,300,2013-09-28 21:53:00
5:53 PM,69.1,34.0,27,30.05,10.0,WNW,9.2,-,N/A,,Clear,290,2013-09-28 22:53:00
6:53 PM,66.9,35.1,31,30.05,10.0,WNW,3.5,-,N/A,,Clear,290,2013-09-28 23:53:00
7:53 PM,62.1,37.0,39,30.07,10.0,South,4.6,-,N/A,,Clear,190,2013-09-29 00:53:00
8:53 PM,57.9,37.9,47,30.07,10.0,SSW,4.6,-,N/A,,Clear,200,2013-09-29 01:53:00
9:53 PM,53.1,39.9,61,30.09,10.0,Calm,Calm,-,N/A,,Clear,0,2013-09-29 02:53:00
10:53 PM,50.0,41.0,71,30.09,10.0,SW,8.1,-,N/A,,Clear,230,2013-09-29 03:53:00
11:53 PM,50.0,39.9,68,30.09,10.0,WSW,8.1,-,N/A,,Clear,240,2013-09-29 04:53:00